Tracking 28052 objects as of 21-Sep-2023
HD Live streaming from Space Station
objects crossing your sky now

TEVEL 5

Track TEVEL 5 now!
10-day predictions
TEVEL 5 is classified as:


NORAD ID: 50998
Int'l Code: 2022-002Q
Perigee: 477.0 km
Apogee: 486.7 km
Inclination: 97.4 °
Period: 94.1 minutes
Semi major axis: 6852 km
RCS: Unknown
Launch date: January 13, 2022
Source: Israel (ISRA)
Launch site: AIR FORCE EASTERN TEST RANGE (AFETR)

Uplink (MHz): 145.970
Downlink (MHz): 436.400
Beacon (MHz):
Mode: 9600bps BPSK FM
Call sign: T5SNG
Status: Active

Your satellite tracking list
Your tracking list is empty




NASA's NSSDC Master Catalog

Two Line Element Set (TLE):
1 50998U 22002Q   23264.06247194  .00031536  00000-0  10719-2 0  9995
2 50998  97.4225 331.1116 0007082 241.2234 118.8295 15.30379743 93438
Source of the keplerian elements: AMSAT